Terminal Aerodrome Forecast
Issued by NWS Indianapolis, IN

Home | Current Version | Previous Version | Text Only | Print | Product List | Glossary On
Versions: 1 2 3 4 5 6 7 8 9 10 11 12 13 14 15 16 17 18 19 20 21
000
FTUS43 KIND 280800 AAA
TAFIND
TAF AMD
KIND 280824Z 2808/2912 31011KT P6SM -DZ BKN009 OVC014
     FM281900 33007KT P6SM SCT020 BKN200
     FM282300 36004KT P6SM SCT200=

USA.gov is the U.S. government's official web portal to all federal, state and local government web resources and services.